TimeEAT,TemperatureF,Dew PointF,Humidity,Sea Level PressureIn,VisibilityMPH,Wind Direction,Wind SpeedMPH,Gust SpeedMPH,PrecipitationIn,Events,Conditions,WindDirDegrees,DateUTC
12:00 AM,69,63,76,,19,Calm,Calm,,,,,,2013-09-14 21:00:00
12:00 AM,69.8,62.6,78,30.06,6.2,Calm,Calm,-,N/A,,Clear,0,2013-09-14 21:00:00
3:00 AM,64.4,60.8,88,30.04,6.2,Calm,Calm,-,N/A,,Clear,0,2013-09-15 00:00:00
4:00 AM,64.4,60.8,88,30.04,6.2,Calm,Calm,-,N/A,,Clear,0,2013-09-15 01:00:00
5:00 AM,62.6,59.0,88,30.04,6.2,Calm,Calm,-,N/A,,Clear,0,2013-09-15 02:00:00
6:00 AM,60,58,93,,19,Calm,Calm,,,,Scattered Clouds,,2013-09-15 03:00:00
6:00 AM,60.8,59.0,94,30.06,6.2,Calm,Calm,-,N/A,,Partly Cloudy,0,2013-09-15 03:00:00
8:00 AM,66.2,60.8,83,30.06,6.2,Calm,Calm,-,N/A,,Partly Cloudy,0,2013-09-15 05:00:00
9:00 AM,70,61,65,,19,Calm,Calm,,,,Partly Cloudy,,2013-09-15 06:00:00
9:00 AM,69.8,60.8,73,30.06,6.2,Calm,Calm,-,N/A,,Scattered Clouds,0,2013-09-15 06:00:00
10:00 AM,77.0,60.8,57,30.09,6.2,Calm,Calm,-,N/A,,Scattered Clouds,0,2013-09-15 07:00:00
11:00 AM,78.8,59.0,51,30.06,6.2,Calm,Calm,-,N/A,,Scattered Clouds,0,2013-09-15 08:00:00
12:00 PM,82,59,36,,19,SE,5.8,,,,Partly Cloudy,140,2013-09-15 09:00:00
12:00 PM,82.4,59.0,45,30.04,6.2,SE,5.8,-,N/A,,Scattered Clouds,140,2013-09-15 09:00:00
1:00 PM,84.2,55.4,37,29.98,6.2,ESE,5.8,-,N/A,,Scattered Clouds,120,2013-09-15 10:00:00
2:00 PM,86.0,57.2,37,29.98,6.2,Calm,Calm,-,N/A,,Scattered Clouds,0,2013-09-15 11:00:00
3:00 PM,87,58,27,,19,SE,4.6,,,,Partly Cloudy,140,2013-09-15 12:00:00
3:00 PM,87.8,57.2,35,29.95,6.2,SE,4.6,-,N/A,,Scattered Clouds,140,2013-09-15 12:00:00
4:00 PM,87.8,57.2,35,29.95,6.2,SSE,5.8,-,N/A,,Scattered Clouds,160,2013-09-15 13:00:00
5:00 PM,86.0,57.2,37,29.95,6.2,SSE,6.9,-,N/A,,Scattered Clouds,160,2013-09-15 14:00:00
6:00 PM,84,56,28,,19,ESE,9.2,,,,Scattered Clouds,120,2013-09-15 15:00:00
6:00 PM,84.2,57.2,40,29.95,6.2,ESE,9.2,-,N/A,,Partly Cloudy,120,2013-09-15 15:00:00
7:00 PM,80.6,59.0,48,29.98,6.2,NE,13.8,-,N/A,,Partly Cloudy,50,2013-09-15 16:00:00
8:00 PM,77.0,62.6,61,29.98,6.2,NE,16.1,-,N/A,,Partly Cloudy,50,2013-09-15 17:00:00
9:00 PM,75,65,63,,19,NE,17.3,,,,Scattered Clouds,50,2013-09-15 18:00:00
9:00 PM,-9999,64.4,N/A,30.04,6.2,NE,17.3,-,N/A,,Partly Cloudy,50,2013-09-15 18:00:00
10:00 PM,73.4,64.4,73,30.01,6.2,NE,20.7,-,N/A,,Partly Cloudy,50,2013-09-15 19:00:00
11:00 PM,75.2,66.2,73,30.01,6.2,NE,18.4,-,N/A,,Partly Cloudy,50,2013-09-15 20:00:00